Weather History for Prescott, AZ

Change the Weather History Date:

Sunday, February 5, 2012

  Actual Average Record
Temperature  
Mean Temperature 38 °F 40 °F  
Max Temperature 53 °F 54 °F 76 °F (1963)
Min Temperature 24 °F 27 °F -1 °F (1985)
Degree Days  
Heating Degree Days 26    
Month to date heating degree days  
Since 1 July heating degree days  
Cooling Degree Days 0    
Month to date cooling degree days  
Year to date cooling degree days  
Moisture  
Dew Point 18 °F    
Average Humidity 50    
Maximum Humidity 75    
Minimum Humidity 24    
Precipitation  
Precipitation 0.00 in 0.04 in 0.90 in (1976)
Month to date precipitation 0.20  
Year to date precipitation 1.32  
Sea Level Pressure  
Sea Level Pressure 30.06 in    
Wind  
Wind Speed 5 mph (SSW)    
Max Wind Speed 8 mph    
Max Gust Speed -    
Visibility 10 miles    
Events      
T = Trace of Precipitation, MM = Missing Value Source: NWS Daily Summary

Daily Weather History Graph

Daily Weather History Graph

Search for Another Location

Airport:

Trip Planner

Search our weather history database for the weather conditions in past years. The results will help you decide how hot, cold, wet, or windy it might be!

Date:

Astronomy

Feb. 05, 2012 Rise Set
Actual Time 7:25 AM MST 6:02 PM MST
Civil Twilight 6:58 AM MST 6:29 PM MST
Nautical Twilight 6:28 AM MST 6:59 PM MST
Astronomical Twilight 5:59 AM MST 7:28 PM MST
Moon 4:08 PM MST (2/5) 5:35 AM MST (2/5)
Length of Visible Light 11h 30m
Length of Day
10h 37m
Waxing Gibbous, 95% of the Moon is Illuminated
Feb 5
Waxing Gibbous
Feb 7
Full
Feb 14
Last Quarter
Feb 21
New
Feb 29
First Quarter

Hourly Weather History & Observations

Time (MST) Temp. Windchill Dew Point Humidity Pressure Visibility Wind Dir Wind Speed Gust Speed Precip Events Conditions
12:53 AM 28.0 °F 24.2 °F 16.0 °F 61% 30.07 in 10.0 mi SW 3.5 mph - N/A   Clear
1:53 AM 27.0 °F 21.6 °F 17.1 °F 66% 30.07 in 10.0 mi SSW 4.6 mph - N/A   Clear
2:53 AM 26.1 °F 20.5 °F 17.1 °F 69% 30.06 in 10.0 mi SSW 4.6 mph - N/A   Clear
3:53 AM 25.0 °F 18.1 °F 17.1 °F 72% 30.06 in 10.0 mi SSW 5.8 mph - N/A   Clear
4:53 AM 24.1 °F 18.2 °F 16.0 °F 71% 30.08 in 10.0 mi South 4.6 mph - N/A   Clear
5:53 AM 24.1 °F 17.0 °F 17.1 °F 75% 30.09 in 10.0 mi South 5.8 mph - N/A   Clear
6:53 AM 24.1 °F 16.0 °F 17.1 °F 75% 30.12 in 10.0 mi South 6.9 mph - N/A   Clear
7:53 AM 24.1 °F 16.0 °F 17.1 °F 75% 30.14 in 10.0 mi South 6.9 mph - N/A   Clear
8:53 AM 32.0 °F - 21.0 °F 64% 30.12 in 10.0 mi Calm Calm - N/A   Clear
9:53 AM 37.9 °F 35.5 °F 23.0 °F 55% 30.11 in 10.0 mi North 3.5 mph - N/A   Clear
10:53 AM 44.1 °F 41.5 °F 23.0 °F 43% 30.11 in 10.0 mi NNE 4.6 mph - N/A   Clear
11:53 AM 46.9 °F - 21.9 °F 37% 30.08 in 10.0 mi Variable 5.8 mph - N/A   Clear
12:53 PM 50.0 °F - 17.1 °F 27% 30.04 in 10.0 mi East 3.5 mph - N/A   Clear
1:53 PM 51.1 °F - 18.0 °F 27% 30.01 in 10.0 mi Variable 4.6 mph - N/A   Clear
2:53 PM 53.1 °F - 18.0 °F 25% 29.99 in 10.0 mi Variable 4.6 mph - N/A   Clear
3:53 PM 53.1 °F - 17.1 °F 24% 29.98 in 10.0 mi Calm Calm - N/A   Clear
4:53 PM 53.1 °F - 17.1 °F 24% 29.98 in 10.0 mi Variable 5.8 mph - N/A   Partly Cloudy
5:53 PM 50.0 °F - 18.0 °F 28% 30.00 in 10.0 mi East 3.5 mph - N/A   Clear
6:53 PM 44.1 °F 40.8 °F 17.1 °F 34% 30.03 in 10.0 mi WNW 5.8 mph - N/A   Clear
7:53 PM 39.9 °F 35.1 °F 18.0 °F 41% 30.05 in 10.0 mi West 6.9 mph - N/A   Clear
8:53 PM 36.0 °F 33.3 °F 18.0 °F 48% 30.05 in 10.0 mi South 3.5 mph - N/A   Clear
9:53 PM 35.1 °F 29.3 °F 18.0 °F 50% 30.03 in 10.0 mi South 6.9 mph - N/A   Clear
10:53 PM 34.0 °F 28.0 °F 18.0 °F 52% 30.02 in 10.0 mi SSW 6.9 mph - N/A   Clear
11:53 PM 36.0 °F 29.6 °F 19.0 °F 50% 30.01 in 10.0 mi WNW 8.1 mph - N/A   Clear